Theta_e
321 333 332 333 327 323 319 318 317 316 316 314 314 314 314 313 313 312 312 311 311 310 311 311 311 310 309 308 308 307 307 306 301 301 305 306 305 305 304 304 304 302 301
322 330 331 332 327 321 319 317 316 316 316 314 314 314 314 314 314 314 313 312 312 311 311 311 311 311 310 309 308 305 306 305 302 300 303 300 305 301 303 303 303 302 301
323 329 331 331 324 319 317 316 315 315 315 314 314 314 314 314 313 313 313 312 313 312 312 312 311 310 309 309 308 305 302 304 303 301 300 298 300 298 301 300 302 300 299
323 328 330 329 322 318 316 316 315 315 315 314 314 314 314 313 313 313 312 312 313 312 312 311 311 309 309 309 307 304 302 302 301 302 301 301 300 297 296 299 299 299 296
324 325 327 329 322 317 316 315 315 315 314 314 313 313 313 313 313 312 312 312 312 311 311 310 310 309 309 309 307 303 302 299 300 300 299 300 300 300 298 297 298 296 296
324 325 325 325 319 317 316 316 315 314 314 314 314 313 313 313 313 313 313 312 311 311 310 310 309 309 309 308 304 300 298 299 298 298 298 298 298 298 297 295 295 295 295
324 324 323 320 319 318 317 316 315 314 314 314 313 312 313 314 313 313 312 312 311 310 309 309 309 309 308 305 300 297 296 296 297 296 297 297 296 296 296 295 294 293 294
324 324 324 320 320 318 318 317 315 314 314 313 312 314 314 314 313 313 312 311 310 309 309 308 308 307 304 299 295 295 295 295 294 295 295 295 295 295 295 294 294 292 292
324 324 324 322 320 319 318 317 316 315 314 313 314 314 314 314 314 313 311 310 309 309 308 307 306 302 298 295 294 295 294 294 294 295 295 295 295 295 294 294 293 293 292
319 322 322 323 321 320 318 317 315 314 314 313 314 314 314 313 312 310 309 309 308 308 306 304 301 297 295 294 293 293 293 293 294 294 294 294 295 294 294 294 293 293 292
315 316 319 319 319 318 317 315 315 314 313 313 313 313 311 310 308 308 308 307 306 304 302 299 297 295 294 293 293 293 293 293 293 294 294 294 294 294 293 293 292 292 292
313 314 314 314 315 314 314 313 313 313 313 313 312 310 309 308 307 306 306 304 301 299 298 296 295 294 293 293 293 293 292 293 294 294 294 293 293 292 292 292 292 291 291
311 311 313 312 311 310 310 310 311 312 311 310 309 308 306 306 305 303 301 299 297 296 295 294 293 293 292 292 292 293 294 294 293 292 290 290 290 290 290 291 290 290 290
310 309 311 310 308 307 308 309 309 309 308 308 306 305 304 303 301 299 297 296 295 294 293 293 292 292 292 292 292 293 293 292 290 288 287 288 289 289 289 289 289 289 289
309 307 310 307 306 304 305 305 305 305 305 305 304 303 302 300 298 296 295 294 294 293 293 292 292 292 293 294 293 292 290 288 287 287 288 288 289 289 289 289 289 289 289
306 305 306 304 303 303 303 303 303 303 304 303 301 300 299 297 296 295 294 293 293 292 292 292 293 294 291 290 289 289 288 288 287 287 288 288 288 288 289 289 289 289 290
301 300 299 299 300 301 303 302 302 302 302 300 299 298 296 295 294 294 293 292 292 292 294 293 292 291 289 289 289 289 288 287 287 287 288 288 288 287 288 288 289 289 289
299 298 297 298 300 300 300 301 302 301 300 298 297 296 295 294 293 292 292 293 293 293 291 290 288 287 288 288 289 288 287 287 287 287 287 287 286 287 288 289 289 288 288
297 297 298 299 299 300 300 300 300 298 297 296 295 294 293 293 292 293 293 292 291 290 288 288 288 288 288 287 288 288 288 287 287 286 286 286 286 286 288 288 288 288 288
297 297 298 298 298 298 299 298 296 295 294 294 293 293 293 294 293 292 291 289 288 288 288 288 288 287 287 287 288 288 288 287 286 286 286 286 286 287 288 288 286 286 286
296 297 297 297 297 297 297 295 294 293 293 293 293 294 293 292 291 289 288 288 288 288 288 287 287 287 287 287 288 287 287 286 286 286 285 285 286 287 286 286 284 285 285
295 295 295 295 295 295 295 293 292 292 293 293 292 291 290 289 288 288 288 288 287 287 287 287 286 286 286 286 285 286 286 286 285 285 285 285 286 285 284 283 283 284 282
293 294 294 294 294 294 293 292 292 293 292 291 291 289 288 287 287 287 287 287 287 287 286 286 285 285 284 284 285 285 286 285 285 285 285 285 284 283 282 282 282 282 281
293 293 293 292 292 292 292 292 292 292 291 290 288 288 288 288 287 287 287 287 287 286 286 286 285 285 285 285 285 285 284 284 285 285 283 282 282 281 281 281 281 281 281
293 293 292 291 291 291 291 292 292 291 290 288 288 288 288 287 287 287 287 287 287 286 286 286 286 285 285 285 285 284 284 285 285 283 281 280 280 280 281 280 280 280 280
293 292 291 290 290 290 291 292 291 290 289 288 288 288 287 287 287 287 287 287 287 286 286 286 285 285 285 285 284 284 284 284 283 281 280 280 280 280 280 280 280 280 280
Wind_Speed
12 28 31 32 32 35 37 38 37 34 32 30 29 26 24 21 18 15 13 12 11 9 9 6 4 3 2 3 3 3 3 6 10 4 5 5 5 3 4 3 3 5 8
8 15 28 30 31 34 38 39 38 37 35 34 31 29 25 22 18 17 14 13 12 9 8 7 7 3 4 3 2 4 4 4 10 5 3 2 0 3 4 4 3 5 10
11 13 19 25 30 32 36 40 40 39 38 33 27 23 21 19 17 16 14 13 12 10 9 8 7 4 4 3 2 3 4 4 7 9 3 2 2 3 1 5 3 6 13
8 13 17 22 29 30 36 38 39 38 36 32 29 30 25 22 21 19 15 13 11 10 9 8 7 6 5 4 2 3 3 3 5 5 5 5 3 2 3 3 4 8 16
12 13 14 25 28 36 36 40 39 37 34 32 31 31 26 21 19 17 15 14 12 10 9 9 7 7 6 4 3 4 3 3 4 4 2 3 1 2 2 3 8 21 22
14 12 15 20 26 31 34 37 36 33 32 33 31 28 24 20 23 21 19 15 12 9 9 9 7 7 6 5 4 3 4 4 4 4 3 3 2 1 1 1 5 10 20
14 12 11 12 22 29 31 31 32 29 34 33 30 24 24 24 23 21 18 16 15 11 10 9 9 8 6 5 4 4 4 4 4 3 3 1 2 4 7 8 8 6 12
14 15 15 19 24 26 29 29 30 29 31 30 27 24 19 19 17 17 15 15 12 11 9 10 9 7 5 5 4 4 3 2 2 2 2 4 5 8 10 11 11 5 4
12 13 12 19 24 27 25 29 28 24 28 28 26 25 21 20 19 16 16 13 12 12 11 10 8 6 5 4 4 3 3 2 2 3 5 7 9 12 14 15 16 12 7
7 10 11 17 20 22 23 25 27 28 29 28 25 25 26 21 16 15 16 14 14 11 10 10 8 7 5 4 3 3 2 3 4 6 8 11 14 16 17 19 20 20 20
6 7 8 17 18 21 23 24 26 26 27 27 26 21 19 17 16 16 15 13 11 11 11 10 8 6 5 3 2 2 2 5 7 9 12 15 17 19 20 19 20 21 21
7 8 10 14 17 18 19 21 24 27 28 28 25 21 19 19 18 16 15 13 13 12 10 9 7 6 4 3 2 2 3 6 9 12 14 17 19 22 22 22 23 22 19
9 8 10 10 14 16 19 23 25 28 28 26 23 22 21 20 18 17 15 14 13 12 10 8 7 5 3 1 2 3 5 7 10 14 18 19 21 23 20 17 18 19 19
7 7 10 9 15 18 23 25 23 26 26 26 24 22 20 20 18 17 16 14 12 11 9 8 6 3 1 2 3 5 8 12 15 17 18 19 19 18 21 22 17 16 21
6 7 8 9 14 17 23 24 21 24 26 22 21 20 20 19 18 17 15 13 12 10 8 6 5 4 3 3 4 8 13 15 17 18 17 17 17 19 17 17 20 20 20
6 7 7 7 12 18 23 21 19 21 21 22 22 22 21 19 18 16 15 13 11 9 8 7 4 3 4 6 9 11 13 16 16 17 17 18 18 17 18 18 19 19 19
7 7 7 8 15 16 22 21 17 19 22 24 23 21 20 19 17 15 14 13 11 9 7 5 2 5 6 6 8 9 13 16 15 16 17 17 19 21 22 20 22 16 20
8 6 8 13 17 17 17 20 20 21 23 22 21 20 20 19 17 15 14 12 9 6 4 4 6 7 7 8 8 10 16 16 16 15 17 19 21 23 21 24 23 24 25
7 10 13 15 16 17 18 21 24 24 23 22 21 20 19 19 17 15 12 9 6 4 4 6 7 8 10 10 8 10 15 15 16 15 15 18 22 22 23 25 24 23 22
17 17 17 18 19 19 23 26 24 24 22 21 21 19 18 17 15 12 8 6 5 5 6 6 8 10 11 9 8 9 12 14 17 15 17 20 20 21 24 23 24 23 24
19 19 19 20 20 21 24 25 24 24 22 22 22 19 16 14 11 9 7 6 5 5 7 9 10 9 9 5 7 11 13 15 16 17 21 22 20 23 24 22 19 21 23
18 21 21 20 21 23 26 26 25 23 23 22 20 17 14 11 9 8 7 6 5 7 8 8 8 7 7 11 12 10 13 15 19 19 23 22 22 22 20 19 20 19 19
19 23 23 22 21 22 25 27 24 23 22 20 17 15 12 10 8 7 6 6 6 6 6 7 8 11 11 10 11 13 14 16 19 21 19 20 18 18 19 16 18 18 20
18 22 22 21 20 19 21 24 24 21 19 18 15 12 10 8 7 6 6 5 4 4 6 8 9 11 13 13 15 16 18 20 20 18 15 16 16 16 16 19 20 19 19
19 22 21 20 21 21 22 22 21 19 17 15 13 11 9 7 6 4 3 3 5 5 7 9 10 12 14 13 15 16 19 19 17 13 21 19 20 20 18 19 20 22 20
21 20 20 21 23 23 22 20 18 17 17 15 12 10 8 5 4 2 2 3 3 4 5 6 10 10 10 11 14 16 18 15 17 17 18 16 17 16 17 18 19 19 19
Wind_Direction
200 189 188 187 173 173 173 178 180 183 179 172 169 168 170 170 175 175 176 176 175 171 169 164 158 144 121 97 77 91 83 37 18 52 76 151 133 122 118 62 46 26 21
186 176 183 185 175 171 173 175 180 180 182 181 178 175 171 170 176 176 180 181 174 180 177 177 174 180 153 139 91 86 114 64 35 57 74 36 193 33 124 89 64 29 1
198 178 177 181 167 171 171 174 177 180 184 184 178 171 170 169 176 181 180 178 184 186 184 188 196 182 176 162 125 100 100 104 64 53 96 92 209 334 104 93 92 25 1
188 185 174 168 167 172 170 170 178 181 184 181 177 176 173 165 183 183 177 175 185 187 190 192 194 182 168 172 137 114 108 116 102 98 74 82 98 136 337 262 325 322 334
180 189 179 171 164 166 166 170 176 182 181 183 184 183 180 178 177 172 168 171 182 190 182 189 186 194 177 170 173 147 134 124 123 123 143 117 116 117 140 275 307 319 327
185 188 168 146 150 157 160 167 173 180 186 187 187 186 178 175 165 164 168 173 174 178 180 173 182 187 175 179 175 169 156 141 137 134 121 104 113 217 276 261 286 290 312
165 162 155 136 148 154 158 164 169 174 188 191 188 178 178 172 170 169 175 171 168 179 187 174 180 184 180 181 186 172 156 156 164 166 157 177 293 303 304 294 283 264 299
160 165 164 154 156 160 160 162 166 175 187 191 179 173 170 175 171 175 172 185 166 183 174 170 169 170 177 182 177 166 166 186 185 193 251 287 307 310 305 294 294 296 272
147 153 150 156 158 162 161 159 164 171 182 183 177 173 186 186 175 172 168 170 170 172 167 164 162 170 169 166 170 174 190 223 250 282 297 304 314 312 307 301 296 281 300
87 118 136 142 153 156 155 159 166 173 182 180 175 168 171 174 163 170 162 164 155 168 166 159 157 160 163 174 185 197 224 269 288 303 308 312 312 308 304 305 305 293 274
70 97 115 117 122 139 149 153 162 169 177 176 169 171 162 155 164 163 157 154 153 161 157 147 149 155 161 171 196 221 264 289 309 315 315 308 309 307 310 309 307 303 297
66 77 85 96 117 118 134 143 160 165 169 166 162 158 156 157 156 151 145 144 149 148 136 144 146 155 168 190 231 288 303 313 315 315 315 314 317 314 315 312 307 303 301
88 85 90 93 100 114 127 137 148 156 159 150 152 158 155 151 146 141 142 145 142 133 135 141 146 153 164 200 300 305 310 311 315 318 318 319 321 321 324 326 323 317 312
106 101 108 105 105 113 126 134 139 151 148 154 152 150 150 144 139 140 138 142 137 132 139 142 139 132 91 347 314 307 313 316 320 323 324 325 326 326 327 325 323 325 319
101 107 122 121 123 121 128 131 146 146 148 137 149 142 140 140 139 136 139 136 132 131 133 120 98 75 30 359 325 322 325 328 330 332 336 335 329 323 322 318 319 315 312
99 103 106 112 122 134 127 136 153 136 134 149 138 139 139 137 138 139 136 130 125 120 109 95 87 73 38 348 334 332 334 339 344 341 341 339 334 334 325 316 311 306 309
103 98 108 133 115 124 138 135 134 135 143 138 139 138 139 136 136 132 126 121 117 111 99 88 35 1 356 347 345 345 348 350 350 345 342 342 337 328 321 320 317 304 305
118 113 118 111 117 126 127 133 141 137 141 140 135 138 139 134 130 127 122 117 110 101 81 30 1 357 360 355 1 347 348 355 354 345 337 337 336 333 326 320 320 315 314
135 128 122 117 117 119 126 126 131 139 135 134 138 140 138 132 132 126 119 112 108 79 41 21 15 7 6 358 352 347 346 344 344 344 340 333 328 329 324 322 325 326 321
133 129 125 120 117 124 132 130 130 133 135 139 136 137 137 134 130 123 116 104 88 63 38 35 24 10 358 358 350 341 339 342 341 338 329 331 328 325 327 332 330 325 320
132 132 131 130 132 137 138 133 137 136 136 136 134 134 134 128 124 119 110 93 79 61 40 24 10 5 354 356 354 342 339 336 335 332 332 329 326 329 329 331 333 326 330
137 142 135 137 144 148 145 141 137 139 139 138 135 131 128 124 125 119 104 94 67 43 27 8 360 358 345 338 346 350 338 335 334 328 326 327 330 333 335 334 331 335 335
147 151 143 140 148 154 151 142 142 146 142 138 133 131 127 119 111 111 96 70 43 31 16 358 353 354 351 355 350 342 340 338 331 326 326 330 334 337 337 342 340 341 345
152 156 151 144 145 153 154 146 148 150 146 139 136 133 128 123 106 91 67 44 29 11 4 0 353 345 350 352 351 344 342 336 333 335 348 341 339 343 345 347 347 346 342
160 161 155 150 152 153 151 151 153 155 147 141 139 138 136 128 108 81 60 24 10 358 346 345 347 342 339 342 340 339 334 331 337 346 346 352 352 348 344 340 341 343 345
165 163 161 155 155 155 154 156 160 164 154 148 149 147 138 128 131 115 65 50 40 11 8 5 348 338 332 335 335 335 335 343 341 344 351 341 338 332 332 332 332 333 333